FW7447 Weather Reports


Display with metric or nautical units.
time (UTC)temp
F
wind
direction
speed
MPH
gust
MPH
rain 1hr
in
rain 24hr
in
rain mn
in
humidity
%
barometer
mb
20260507014602 65 0 0.0 5.0 0.04 0.29 0.29 96 1013.8
20260507013043 65 200 1.0 3.0 0.06 0.29 0.29 96 1013.6
20260507011540 65 0 1.0 4.0 0.09 0.28 0.28 95 1012.9
20260507010039 65 252 3.0 15.0 0.11 0.25 0.25 95 1014.1
20260507004536 65 219 4.0 10.0 0.14 0.25 0.25 95 1013.1
20260507003044 66 167 3.0 10.0 0.14 0.23 0.23 94 1012.0
20260507001543 66 155 3.0 7.0 0.10 0.18 0.18 93 1012.8
20260507000045 66 182 2.0 7.0 0.06 0.14 0.14 93 1013.4
20260506234536 67 171 1.0 6.0 0.03 0.11 0.11 92 1013.4
20260506233049 67 198 2.0 8.0 0.01 0.09 0.09 91 1013.4
20260506231544 67 225 2.0 9.0 0.00 0.08 0.08 90 1012.5
20260506230046 68 237 2.0 7.0 0.00 0.08 0.08 89 1012.3
20260506224540 69 159 0.0 5.0 0.00 0.08 0.08 87 1012.1
20260506223039 69 166 3.0 7.0 0.00 0.08 0.08 85 1012.6
20260506221535 70 218 1.0 4.0 0.00 0.08 0.08 84 1013.1
20260506220051 70 0 0.0 2.0 0.00 0.08 0.08 82 1012.2
20260506214546 70 215 2.0 6.0 0.00 0.08 0.08 81 1012.7
20260506213041 70 249 1.0 7.0 0.00 0.08 0.08 81 1012.8
20260506211541 70 274 2.0 10.0 0.00 0.08 0.08 81 1012.6
20260506210043 71 204 3.0 8.0 0.00 0.08 0.08 80 1012.7
20260506204546 70 255 3.0 10.0 0.00 0.08 0.08 81 1012.7
20260506203051 70 200 4.0 9.0 0.00 0.08 0.08 80 1012.8
20260506201604 70 212 3.0 10.0 0.00 0.08 0.08 80 1013.1
20260506200051 70 24 2.0 16.0 0.00 0.08 0.08 81 1013.2
20260506194548 69 198 3.0 12.0 0.00 0.08 0.08 81 1013.3
20260506193042 69 168 6.0 14.0 0.00 0.08 0.08 81 1013.7
20260506191545 70 232 4.0 14.0 0.00 0.08 0.08 81 1013.6
20260506190045 70 123 4.0 13.0 0.00 0.08 0.08 81 1013.2
20260506184548 68 169 3.0 17.0 0.00 0.08 0.08 83 1013.2
20260506183040 67 268 4.0 15.0 0.00 0.08 0.08 84 1013.2
20260506181545 67 173 5.0 15.0 0.00 0.08 0.08 85 1013.2
20260506180045 66 184 4.0 14.0 0.00 0.08 0.08 87 1013.2
20260506174543 65 179 4.0 12.0 0.00 0.08 0.08 89 1013.3
20260506173048 64 161 4.0 11.0 0.00 0.08 0.08 90 1012.7
20260506171550 64 202 4.0 11.0 0.03 0.08 0.08 91 1013.3
20260506170050 63 191 3.0 10.0 0.07 0.08 0.08 91 1014.3
20260506164544 63 246 1.0 6.0 0.08 0.08 0.08 91 1014.9
20260506163100 63 187 1.0 7.0 0.08 0.08 0.08 89 1015.2
20260506161542 64 175 3.0 6.0 0.05 0.05 0.05 87 1015.6
20260506160038 65 227 0.0 4.0 0.01 0.01 0.01 86 1015.6
20260506154555 65 0 1.0 7.0 0.00 0.00 0.00 82 1015.1
20260506153045 66 275 1.0 7.0 0.00 0.00 0.00 80 1014.7
20260506151540 65 165 4.0 9.0 0.00 0.00 0.00 79 1014.2
20260506150040 65 225 2.0 5.0 0.00 0.00 0.00 81 1013.8
20260506144537 64 209 2.0 8.0 0.00 0.00 0.00 81 1013.9
20260506143045 64 238 3.0 8.0 0.00 0.00 0.00 81 1013.5
20260506141549 64 171 3.0 9.0 0.00 0.00 0.00 80 1013.4
20260506140053 64 189 3.0 9.0 0.00 0.00 0.00 79 1013.7
20260506134539 64 184 1.0 11.0 0.00 0.00 0.00 80 1013.9
20260506133036 64 186 2.0 10.0 0.00 0.00 0.00 80 1013.8
20260506131545 63 199 2.0 8.0 0.00 0.00 0.00 80 1013.5
20260506130046 63 0 1.0 8.0 0.00 0.00 0.00 81 1013.4
20260506124544 62 200 3.0 17.0 0.00 0.00 0.00 81 1013.4
20260506123040 62 65 3.0 11.0 0.00 0.00 0.00 82 1013.2
20260506121535 61 159 5.0 12.0 0.00 0.00 0.00 83 1013.2
20260506120059 61 196 2.0 9.0 0.00 0.00 0.00 83 1013.6
20260506114550 61 0 1.0 8.0 0.00 0.00 0.00 83 1013.8
20260506113044 60 205 1.0 6.0 0.00 0.00 0.00 84 1013.8
20260506111543 60 213 2.0 11.0 0.00 0.00 0.00 84 1013.4
20260506110035 60 192 3.0 10.0 0.00 0.00 0.00 84 1013.3
20260506104547 60 167 2.0 12.0 0.00 0.00 0.00 84 1013.2
20260506103044 60 215 5.0 14.0 0.00 0.00 0.00 83 1013.0
20260506101545 60 150 4.0 15.0 0.00 0.00 0.00 83 1012.7
20260506100047 61 140 4.0 13.0 0.00 0.00 0.00 83 1012.8
20260506094545 61 161 4.0 13.0 0.00 0.00 0.00 82 1012.7
20260506093101 60 111 1.0 10.0 0.00 0.00 0.00 83 1013.0
20260506091547 60 186 2.0 10.0 0.00 0.00 0.00 83 1012.9
20260506090049 60 189 3.0 9.0 0.00 0.00 0.00 82 1013.1
20260506084544 60 213 2.0 9.0 0.00 0.00 0.00 82 1013.1
20260506083042 61 178 3.0 10.0 0.00 0.00 0.00 82 1013.1
20260506081540 61 221 3.0 10.0 0.00 0.00 0.00 81 1013.1
20260506073045 61 240 3.0 16.0 0.00 0.00 0.00 77 1013.2
20260506071543 62 173 5.0 14.0 0.00 0.00 0.00 76 1013.3
20260506061557 63 138 6.0 17.0 0.00 0.00 0.00 68 1013.5
20260506044540 63 171 1.0 4.0 0.00 0.00 0.00 63 1013.9
20260506043039 64 201 1.0 4.0 0.00 0.00 0.00 62 1013.9
20260506041535 64 0 0.0 4.0 0.00 0.00 0.00 61 1013.7
20260506040053 65 201 2.0 6.0 0.00 0.00 0.00 60 1013.9
20260506034545 65 181 3.0 7.0 0.00 0.00 0.00 59 1013.8
20260506033042 65 167 2.0 7.0 0.00 0.00 0.00 59 1014.0
20260506031542 65 166 1.0 5.0 0.00 0.00 0.00 59 1014.1
20260506030035 65 196 2.0 8.0 0.00 0.00 0.00 59 1014.0
20260506024544 65 207 0.0 7.0 0.00 0.00 0.00 59 1014.0
20260506023052 65 213 0.0 5.0 0.00 0.00 0.00 58 1014.0
20260506021536 65 190 0.0 4.0 0.00 0.00 0.00 58 1014.0
20260506020106 66 229 0.0 2.0 0.00 0.00 0.00 57 1014.1